User: anonymous   Login
Location: College Park
(38.9810°N, 76.9370°W)
Time: 03:54:07
(UTC-04:00)
Language:

N. Korean satellite - Orbit

View from above orbital plane
View from above orbital plane
View from above satellite
View from above satellite

Ground track
Ground track

The orbit data is extracted from the following two-line orbital elements,

1 39026U 12072A   18112.96738415 +.00001905 +00000-0 +73936-4 0  9995
2 39026 097.2128 125.2128 0040139 156.6668 203.6404 15.26568417297177
Epoch (UTC): 22 April 2018 23:13:01
Eccentricity: 0.0040139
inclination: 97.2128°
perigee height: 458 km
apogee height: 513 km
right ascension of ascending node: 125.2128°
argument of perigee: 156.6668°
revolutions per day: 15.26568417
mean anomaly at epoch: 203.6404°
orbit number at epoch: 29717

The dashed part of the orbit path shows where the satellite is in the earth's shadow,  

DLR